GW0571 Weather Reports


Display with metric or nautical units.
time (UTC)temp
F
wind
direction
speed
MPH
gust
MPH
rain 1hr
in
rain 24hr
in
rain mn
in
humidity
%
barometer
mb
20260905111018 55 129 0.0 2.0 0.00 0.00 0.00 96 1012.8
20260905110518 55 105 1.0 2.0 0.00 0.00 0.00 96 1013.0
20260905110013 54 104 0.0 2.0 0.00 0.00 0.00 96 1012.8
20260905105507 54 62 0.0 2.0 0.00 0.00 0.00 96 1012.8
20260905105006 54 59 1.0 2.0 0.00 0.00 0.00 96 1012.6
20260905104503 54 103 0.0 1.0 0.00 0.00 0.00 96 1012.6
20260905103957 54 113 1.0 2.0 0.00 0.00 0.00 96 1012.6
20260905103452 54 22 0.0 0.0 0.00 0.00 0.00 96 1012.5
20260905102948 54 49 0.0 2.0 0.00 0.00 0.00 96 1012.5
20260905102444 54 22 0.0 0.0 0.00 0.00 0.00 96 1012.4
20260905101939 55 22 0.0 1.0 0.00 0.00 0.00 96 1012.3
20260905101438 55 60 0.0 1.0 0.00 0.00 0.00 96 1012.5
20260905100932 55 72 1.0 2.0 0.00 0.00 0.00 96 1012.2
20260905100428 55 94 1.0 2.0 0.00 0.00 0.00 96 1012.2
20260905095927 55 89 0.0 1.0 0.00 0.00 0.00 96 1012.2
20260905095422 55 94 0.0 1.0 0.00 0.00 0.00 96 1012.1
20260905094922 55 32 0.0 2.0 0.00 0.00 0.00 96 1012.1
20260905094418 55 89 0.0 2.0 0.00 0.00 0.00 96 1012.1
20260905093916 55 113 0.0 2.0 0.00 0.00 0.00 96 1012.0
20260905093412 55 89 0.0 0.0 0.00 0.00 0.00 96 1012.3
20260905092907 55 110 0.0 2.0 0.00 0.00 0.00 96 1012.1
20260905092402 55 89 0.0 2.0 0.00 0.00 0.00 96 1012.1
20260905091857 55 123 0.0 1.0 0.00 0.00 0.00 96 1012.3
20260905091357 55 95 1.0 1.0 0.00 0.00 0.00 96 1012.1
20260905090856 55 148 0.0 2.0 0.00 0.00 0.00 96 1012.3
20260905090352 55 35 0.0 2.0 0.00 0.00 0.00 96 1012.2
20260905085850 56 94 0.0 2.0 0.00 0.00 0.00 96 1012.1
20260905085345 56 49 0.0 2.0 0.00 0.00 0.00 96 1012.1
20260905084842 56 129 0.0 0.0 0.00 0.00 0.00 96 1012.2
20260905084340 56 89 0.0 1.0 0.00 0.00 0.00 96 1012.1
20260905083835 56 89 0.0 0.0 0.00 0.00 0.00 96 1012.1
20260905083331 56 103 0.0 1.0 0.00 0.00 0.00 96 1012.1
20260905082827 56 119 0.0 1.0 0.00 0.00 0.00 96 1012.4
20260905082322 56 102 0.0 1.0 0.00 0.00 0.00 96 1012.4
20260905081817 57 103 0.0 1.0 0.00 0.00 0.00 96 1012.4
20260905081313 57 50 0.0 1.0 0.00 0.00 0.00 96 1012.2
20260905080811 57 142 0.0 1.0 0.00 0.00 0.00 96 1012.4
20260905080306 57 119 0.0 1.0 0.00 0.00 0.00 96 1012.4
20260905075805 57 50 0.0 1.0 0.00 0.00 0.00 96 1012.3
20260905075306 58 37 0.0 1.0 0.00 0.00 0.00 96 1012.6
20260905074803 58 38 0.0 1.0 0.00 0.00 0.00 96 1012.4
20260905074300 58 217 0.0 0.0 0.00 0.00 0.00 96 1012.5
20260905073755 58 50 0.0 1.0 0.00 0.00 0.00 96 1012.2
20260905073250 58 33 0.0 2.0 0.00 0.00 0.00 96 1012.2
20260905072744 58 25 1.0 2.0 0.00 0.00 0.00 96 1012.4
20260905072239 58 28 1.0 1.0 0.00 0.00 0.00 96 1012.5
20260905071736 59 25 0.0 1.0 0.00 0.00 0.00 96 1012.4
20260905071232 59 13 0.0 2.0 0.00 0.00 0.00 96 1012.4
20260905070726 59 42 0.0 2.0 0.00 0.00 0.00 96
20260905070223 59 27 0.0 1.0 0.00 0.00 0.00 96
20260905065721 59 39 1.0 2.0 0.00 0.00 0.00 96
20260905065215 59 31 0.0 2.0 0.00 0.00 0.00 96
20260905064710 59 6 0.0 1.0 0.00 0.00 0.00 96
20260905064206 59 18 1.0 2.0 0.00 0.00 0.00 96
20260905063704 59 12 0.0 2.0 0.00 0.00 0.00 96
20260905063201 59 23 0.0 2.0 0.00 0.00 0.00 96
20260905062656 59 0 0.0 2.0 0.00 0.00 0.00 96
20260905062156 59 352 0.0 2.0 0.00 0.00 0.00 96
20260905061655 59 5 0.0 2.0 0.00 0.00 0.00 96
20260905061150 58 22 0.0 1.0 0.00 0.00 0.00 96
20260905060645 58 49 1.0 2.0 0.00 0.00 0.00 96
20260905060142 57 104 1.0 2.0 0.00 0.00 0.00 96
20260905055640 57 22 0.0 0.0 0.00 0.00 0.00 96
20260905055136 57 125 1.0 1.0 0.00 0.00 0.00 96
20260905054631 57 125 1.0 1.0 0.00 0.00 0.00 96
20260905054126 57 106 1.0 2.0 0.00 0.00 0.00 96
20260905053621 57 49 0.0 1.0 0.00 0.00 0.00 96
20260905053116 57 116 0.0 2.0 0.00 0.00 0.00 96
20260905052615 57 113 0.0 1.0 0.00 0.00 0.00 96
20260905052110 57 66 0.0 1.0 0.00 0.00 0.00 96
20260905051606 58 32 0.0 1.0 0.00 0.00 0.00 96
20260905051102 58 50 0.0 1.0 0.00 0.00 0.00 96
20260905050558 58 37 0.0 1.0 0.00 0.00 0.00 96
20260905050054 58 77 0.0 1.0 0.00 0.00 0.00 96
20260905045548 58 113 0.0 1.0 0.00 0.00 0.00 96
20260905045044 58 76 0.0 1.0 0.00 0.00 0.00 96
20260905044544 58 124 0.0 1.0 0.00 0.00 0.00 96
20260905044038 59 44 0.0 1.0 0.00 0.00 0.00 96
20260905043538 59 44 0.0 0.0 0.00 0.00 0.00 96
20260905043033 59 50 0.0 1.0 0.00 0.00 0.00 96
20260905042532 59 19 0.0 1.0 0.00 0.00 0.00 96
20260905042027 59 47 0.0 1.0 0.00 0.00 0.00 96
20260905041523 59 89 0.0 1.0 0.00 0.00 0.00 96
20260905041018 60 32 0.0 0.0 0.00 0.00 0.00 96
20260905040517 60 32 0.0 1.0 0.00 0.00 0.00 96
20260905040016 60 37 0.0 0.0 0.00 0.28 0.28 96
20260905035511 60 37 0.0 1.0 0.00 0.28 0.28 96
20260905035008 60 20 1.0 2.0 0.00 0.28 0.28 96
20260905034503 60 55 0.0 1.0 0.00 0.28 0.28 96
20260905034003 61 37 0.0 0.0 0.00 0.28 0.28 96
20260905033457 61 37 0.0 0.0 0.00 0.28 0.28 96
20260905032952 61 37 0.0 2.0 0.00 0.28 0.28 96
20260905032448 61 37 0.0 1.0 0.00 0.28 0.28 96
20260905031943 61 71 0.0 2.0 0.00 0.28 0.28 96
20260905031438 61 28 0.0 1.0 0.00 0.28 0.28 96
20260905030933 62 89 0.0 0.0 0.00 0.28 0.28 96
20260905030429 62 129 0.0 1.0 0.00 0.28 0.28 96
20260905025927 62 50 0.0 1.0 0.00 0.28 0.28 96
20260905025423 62 23 0.0 0.0 0.00 0.28 0.28 96
20260905024920 62 89 0.0 0.0 0.00 0.28 0.28 95
20260905024420 62 89 0.0 1.0 0.00 0.28 0.28 95
20260905023915 63 115 0.0 1.0 0.00 0.28 0.28 95
20260905023410 63 129 0.0 0.0 0.00 0.28 0.28 94
20260905022909 63 129 0.0 0.0 0.00 0.28 0.28 93
20260905022404 64 129 0.0 0.0 0.00 0.28 0.28 92
20260905021859 64 129 0.0 0.0 0.00 0.28 0.28 92
20260905021349 64 129 0.0 0.0 0.00 0.28 0.28 92
20260905020844 64 142 0.0 1.0 0.00 0.28 0.28 92
20260905020338 64 37 0.0 0.0 0.00 0.28 0.28 91
20260905015838 64 44 0.0 1.0 0.00 0.28 0.28 91
20260905015337 64 6 0.0 0.0 0.00 0.28 0.28 91
20260905014831 64 6 0.0 1.0 0.00 0.28 0.28 91
20260905014327 65 341 0.0 1.0 0.00 0.28 0.28 91
20260905013821 64 24 1.0 2.0 0.00 0.28 0.28 91
20260905013318 65 22 0.0 0.0 0.00 0.28 0.28 91
20260905012813 65 37 0.0 1.0 0.00 0.28 0.28 90
20260905012309 65 326 0.0 0.0 0.00 0.28 0.28 88
20260905011805 65 326 0.0 0.0 0.00 0.28 0.28 87
20260905011300 66 326 0.0 1.0 0.00 0.28 0.28 86
20260905010755 66 6 0.0 2.0 0.00 0.28 0.28 86
20260905010250 66 303 1.0 4.0 0.00 0.28 0.28 85
20260905005747 66 350 0.0 3.0 0.00 0.28 0.28 85
20260905005242 66 335 2.0 3.0 0.00 0.28 0.28 86
20260905004741 66 339 1.0 3.0 0.00 0.28 0.28 86
20260905004236 66 351 2.0 3.0 0.00 0.28 0.28 87
20260905003736 66 350 1.0 2.0 0.00 0.28 0.28 88
20260905003232 66 348 0.0 3.0 0.00 0.28 0.28 88
20260905002728 66 338 0.0 2.0 0.00 0.28 0.28 89
20260905002228 66 322 0.0 2.0 0.00 0.28 0.28 89
20260905001723 66 354 0.0 1.0 0.00 0.28 0.28 89
20260905001222 67 0 0.0 2.0 0.00 0.28 0.28 87
20260905000718 67 3 1.0 2.0 0.00 0.28 0.28 85
20260905000213 67 346 1.0 1.0 0.00 0.28 0.28 85
20260904235708 67 326 0.0 1.0 0.00 0.28 0.28 85
20260904235203 67 315 0.0 2.0 0.00 0.28 0.28 85
20260904234657 67 324 0.0 2.0 0.00 0.28 0.28 85
20260904234153 67 344 1.0 2.0 0.00 0.28 0.28 85
20260904233649 67 10 0.0 1.0 0.00 0.28 0.28 85
20260904233144 68 352 0.0 1.0 0.00 0.28 0.28 85
20260904232641 68 13 0.0 2.0 0.00 0.28 0.28 85
20260904232137 68 2 1.0 1.0 0.00 0.28 0.28 85
20260904231632 67 333 0.0 1.0 0.00 0.28 0.28 86
20260904231127 67 322 0.0 0.0 0.00 0.28 0.28 89
20260904230626 68 322 0.0 2.0 0.00 0.28 0.28 87
20260904230122 68 6 0.0 1.0 0.00 0.28 0.28 84
20260904225619 68 44 0.0 2.0 0.00 0.28 0.28 82
20260904225115 69 293 0.0 0.0 0.00 0.28 0.28 80
20260904224609 70 293 0.0 0.0 0.00 0.28 0.28 80
20260904224104 71 293 0.0 0.0 0.00 0.28 0.28 78
20260904223603 71 296 0.0 2.0 0.00 0.28 0.28 76
20260904223059 71 310 0.0 2.0 0.00 0.28 0.28 77
20260904222555 71 298 1.0 3.0 0.00 0.28 0.28 74
20260904222050 72 336 0.0 2.0 0.00 0.28 0.28 73
20260904221550 73 325 0.0 2.0 0.00 0.28 0.28 69
20260904221044 73 315 0.0 3.0 0.00 0.28 0.28 69
20260904220543 73 337 2.0 3.0 0.00 0.28 0.28 69
20260904220039 72 310 2.0 3.0 0.00 0.28 0.28 71
20260904215534 73 306 1.0 3.0 0.00 0.28 0.28 69
20260904215030 73 269 0.0 3.0 0.00 0.28 0.28 72
20260904214525 74 321 1.0 2.0 0.00 0.28 0.28 68
20260904214020 74 335 2.0 7.0 0.00 0.28 0.28 67
20260904213518 76 335 3.0 5.0 0.00 0.28 0.28 63
20260904213015 76 312 2.0 3.0 0.00 0.28 0.28 61
20260904212514 75 251 1.0 9.0 0.00 0.28 0.28 65
20260904212009 75 269 0.0 4.0 0.00 0.28 0.28 64
20260904211504 76 258 5.0 6.0 0.00 0.28 0.28 63
20260904211000 77 262 2.0 2.0 0.00 0.28 0.28 61
20260904210459 76 313 2.0 8.0 0.00 0.28 0.28 60
20260904205955 77 256 2.0 5.0 0.00 0.28 0.28 61
20260904205450 76 257 3.0 4.0 0.00 0.28 0.28 62
20260904204947 76 259 2.0 5.0 0.00 0.28 0.28 61
20260904204443 76 322 2.0 6.0 0.00 0.28 0.28 59
20260904203938 77 260 5.0 10.0 0.00 0.28 0.28 57
20260904203435 75 278 1.0 7.0 0.00 0.28 0.28 65
20260904202930 76 345 2.0 3.0 0.00 0.28 0.28 64
20260904202426 76 269 1.0 5.0 0.00 0.28 0.28 61
20260904201922 76 327 3.0 5.0 0.00 0.28 0.28 61
20260904201417 76 252 3.0 9.0 0.00 0.28 0.28 62
20260904200912 77 265 1.0 4.0 0.00 0.28 0.28 60
20260904200405 76 323 4.0 5.0 0.00 0.28 0.28 62
20260904195900 77 279 3.0 5.0 0.00 0.28 0.28 61
20260904195358 77 308 1.0 5.0 0.00 0.28 0.28 59
20260904194853 75 267 3.0 8.0 0.00 0.28 0.28 61
20260904194352 74 305 3.0 6.0 0.00 0.28 0.28 63
20260904193848 75 310 2.0 5.0 0.00 0.28 0.28 63
20260904193343 75 315 0.0 10.0 0.00 0.28 0.28 62
20260904192838 75 304 1.0 5.0 0.00 0.28 0.28 64
20260904192333 74 314 3.0 5.0 0.00 0.28 0.28 65
20260904191830 76 274 1.0 4.0 0.00 0.28 0.28 63
20260904191326 76 337 4.0 5.0 0.00 0.28 0.28 68
20260904190823 76 258 0.0 5.0 0.00 0.28 0.28 63
20260904190318 76 300 2.0 5.0 0.00 0.28 0.28 62
20260904185814 77 325 3.0 4.0 0.00 0.28 0.28 62
20260904185310 75 324 3.0 5.0 0.00 0.28 0.28 64
20260904184809 75 310 4.0 5.0 0.00 0.28 0.28 65
20260904184304 76 15 3.0 4.0 0.00 0.28 0.28 65
20260904183759 75 327 3.0 7.0 0.00 0.28 0.28 64
20260904183254 75 237 8.0 14.0 0.00 0.28 0.28 64
20260904182749 75 17 1.0 5.0 0.00 0.28 0.28 68
20260904182244 74 271 1.0 4.0 0.00 0.28 0.28 69
20260904181740 75 311 3.0 4.0 0.00 0.28 0.28 66
20260904181240 75 313 3.0 7.0 0.00 0.28 0.28 69
20260904180735 75 232 6.0 7.0 0.00 0.28 0.28 66
20260904180230 73 249 2.0 4.0 0.00 0.28 0.28 73
20260904175729 73 239 3.0 5.0 0.00 0.28 0.28 74
20260904175228 73 290 0.0 4.0 0.00 0.28 0.28 73
20260904174723 72 273 1.0 7.0 0.00 0.28 0.28 72
20260904174219 73 322 3.0 4.0 0.00 0.28 0.28 70
20260904173714 73 312 1.0 3.0 0.00 0.28 0.28 71
20260904173209 74 333 2.0 4.0 0.00 0.28 0.28 69
20260904172706 74 267 1.0 4.0 0.00 0.28 0.28 71
20260904172204 73 263 2.0 5.0 0.00 0.28 0.28 69
20260904171700 75 245 3.0 6.0 0.00 0.28 0.28 71
20260904171154 74 334 3.0 11.0 0.00 0.28 0.28 69
20260904170651 74 272 2.0 5.0 0.00 0.28 0.28 70
20260904170147 73 310 3.0 8.0 0.00 0.28 0.28 71
20260904165645 72 285 3.0 7.0 0.00 0.28 0.28 72
20260904165144 72 5 1.0 7.0 0.00 0.28 0.28 73
20260904164640 74 9 4.0 6.0 0.00 0.28 0.28 68
20260904164135 73 325 4.0 10.0 0.00 0.28 0.28 73
20260904163630 74 346 3.0 3.0 0.00 0.28 0.28 72
20260904163120 72 333 3.0 3.0 0.00 0.28 0.28 75
20260904162620 74 321 2.0 3.0 0.00 0.28 0.28 71
20260904162115 74 340 2.0 4.0 0.00 0.28 0.28 70
20260904161610 73 278 2.0 11.0 0.00 0.28 0.28 72
20260904161105 74 266 3.0 4.0 0.00 0.28 0.28 72
20260904160600 74 280 0.0 5.0 0.00 0.28 0.28 73
20260904160057 73 286 3.0 4.0 0.00 0.28 0.28 76
20260904155556 71 238 2.0 3.0 0.00 0.28 0.28 80
20260904155050 71 244 2.0 2.0 0.00 0.28 0.28 80
20260904154544 71 206 0.0 3.0 0.00 0.28 0.28 79
20260904154039 71 341 3.0 5.0 0.00 0.28 0.28 78
20260904153538 72 315 2.0 5.0 0.00 0.28 0.28 79
20260904153035 72 336 2.0 4.0 0.00 0.28 0.28 78
20260904152530 72 347 3.0 6.0 0.00 0.28 0.28 79
20260904152026 71 252 4.0 5.0 0.00 0.28 0.28 79
20260904151520 71 254 3.0 6.0 0.00 0.28 0.28 81
20260904151015 69 346 3.0 3.0 0.00 0.28 0.28 84
20260904150515 70 269 2.0 7.0 0.00 0.28 0.28 84
20260904150009 69 246 4.0 6.0 0.00 0.28 0.28 84
20260904145504 70 257 1.0 8.0 0.00 0.28 0.28 82
20260904144959 71 226 2.0 5.0 0.00 0.28 0.28 81
20260904144455 70 309 2.0 5.0 0.00 0.28 0.28 82
20260904143950 70 304 1.0 3.0 0.00 0.28 0.28 84
20260904143447 71 299 2.0 3.0 0.00 0.28 0.28 82
20260904142943 70 329 1.0 5.0 0.00 0.28 0.28 83
20260904142439 68 357 3.0 5.0 0.00 0.28 0.28 85
20260904141938 69 354 3.0 4.0 0.00 0.28 0.28 84
20260904141433 69 305 2.0 4.0 0.00 0.28 0.28 84
20260904140925 70 350 4.0 5.0 0.00 0.28 0.28 83
20260904140425 69 306 2.0 4.0 0.00 0.28 0.28 84
20260904135924 69 311 1.0 8.0 0.00 0.28 0.28 86
20260904135423 69 323 2.0 3.0 0.00 0.28 0.28 85
20260904134920 69 230 4.0 6.0 0.00 0.28 0.28 85
20260904134420 68 325 2.0 4.0 0.00 0.28 0.28 87
20260904133914 68 258 0.0 3.0 0.00 0.28 0.28 88
20260904133414 68 349 2.0 3.0 0.00 0.28 0.28 87
20260904132910 67 342 5.0 7.0 0.00 0.28 0.28 91
20260904132405 66 35 1.0 4.0 0.00 0.28 0.28 93
20260904131904 65 338 1.0 3.0 0.00 0.28 0.28 95
20260904131359 65 0 1.0 2.0 0.00 0.28 0.28 96
20260904130855 64 222 2.0 3.0 0.00 0.28 0.28 96
20260904130354 64 233 0.0 5.0 0.00 0.28 0.28 96
20260904125849 64 293 0.0 4.0 0.00 0.28 0.28 96
20260904125346 64 262 4.0 6.0 0.00 0.28 0.28 96
20260904124845 64 258 3.0 5.0 0.00 0.28 0.28 96
20260904124342 64 347 0.0 4.0 0.00 0.28 0.28 96
20260904123836 64 298 0.0 5.0 0.00 0.28 0.28 96
20260904123331 64 60 3.0 4.0 0.00 0.28 0.28 96
20260904122826 63 34 0.0 2.0 0.00 0.28 0.28 96
20260904122321 63 252 0.0 2.0 0.00 0.28 0.28 96
20260904121816 63 276 0.0 3.0 0.00 0.28 0.28 96
20260904121312 63 309 2.0 3.0 0.00 0.28 0.28 96
20260904120809 63 217 0.0 3.0 0.00 0.28 0.28 96
20260904120304 63 112 0.0 1.0 0.00 0.28 0.28 96
20260904115759 63 69 0.0 2.0 0.00 0.28 0.28 96
20260904115254 63 142 0.0 1.0 0.00 0.28 0.28 96
20260904114749 63 336 0.0 2.0 0.00 0.28 0.28 96
20260904114248 63 113 0.0 2.0 0.00 0.28 0.28 96
20260904113744 63 50 0.0 2.0 0.00 0.28 0.28 96
20260904113243 63 50 0.0 2.0 0.00 0.28 0.28 96
20260904112738 63 205 1.0 3.0 0.00 0.28 0.28 96
20260904112233 63 192 0.0 2.0 0.00 0.28 0.28 96
20260904111729 63 283 0.0 1.0 0.00 0.28 0.28 96